Kankakee, IL

4:53 AM CDT on September 25, 2017 (GMT -0500)
Greater Kankakee

Weather History for KIKK - April, 2013

Change the Weather History Date:

Saturday, April 6, 2013

  Actual Average Record
Temperature  
Mean Temperature 52 °F -  
Max Temperature 71 °F 56 °F 83 °F (1988)
Min Temperature 32 °F 34 °F 15 °F (1982)
Degree Days  
Heating Degree Days 14    
Growing Degree Days 2 (Base 50)    
Moisture  
Dew Point 32 °F    
Average Humidity 49    
Maximum Humidity 76    
Minimum Humidity 27    
Precipitation  
Precipitation 0.01 in - - ()
Sea Level Pressure  
Sea Level Pressure 29.90 in    
Wind  
Wind Speed 16 mph (SSE)    
Max Wind Speed 34 mph    
Max Gust Speed 46 mph    
Visibility 10 miles    
Events Rain , Thunderstorm    
Averages and records for this station are not official NWS values.
T = Trace of Precipitation, MM = Missing Value Source: NWS Daily Summary

Daily Weather History Graph

Daily Weather History Graph

Search for Another Location

Airport or City:

Trip Planner

Search our weather history database for the weather conditions in past years. The results will help you decide how hot, cold, wet, or windy it might be!

Date:

Astronomy

Apr. 06, 2013 Rise Set
Actual Time 6:26 AM CDT 7:21 PM CDT
Civil Twilight 5:58 AM CDT 7:50 PM CDT
Nautical Twilight 5:24 AM CDT 8:23 PM CDT
Astronomical Twilight 4:50 AM CDT 8:58 PM CDT
Moon 4:11 AM CDT (4/6) 3:48 PM CDT (4/6)
Length of Visible Light 13h 51m
Length of Day
12h 55m
Waning Crescent, 15% of the Moon is Illuminated
Apr 6
Waning Crescent
Apr 10
New
Apr 18
First Quarter
Apr 25
Full
May 2
Last Quarter

Hourly Weather History & Observations

Time (CDT) Temp. Windchill Dew Point Humidity Pressure Visibility Wind Dir Wind Speed Gust Speed Precip Events Conditions
12:15 AM 34.3 °F 26.5 °F 25.7 °F 71% 30.14 in 10.0 mi East 10.4 mph - N/A   Clear
12:35 AM 34.2 °F 25.2 °F 26.2 °F 73% 30.13 in 10.0 mi East 12.7 mph - N/A   Clear
12:55 AM 33.8 °F 27.0 °F 26.2 °F 74% 30.15 in 10.0 mi ENE 8.1 mph - N/A   Clear
1:15 AM 33.3 °F 26.4 °F 26.2 °F 75% 30.14 in 10.0 mi ENE 8.1 mph - N/A   Clear
1:35 AM 33.3 °F 25.1 °F 26.4 °F 76% 30.14 in 10.0 mi ENE 10.4 mph - N/A   Clear
1:55 AM 32.9 °F 25.3 °F 26.1 °F 76% 30.14 in 10.0 mi ENE 9.2 mph - N/A   Clear
2:15 AM 32.9 °F 25.3 °F 25.7 °F 75% 30.13 in 10.0 mi ENE 9.2 mph - N/A   Clear
2:35 AM 32.7 °F 25.7 °F 25.7 °F 75% 30.12 in 10.0 mi ENE 8.1 mph - N/A   Clear
2:55 AM 32.9 °F 24.7 °F 25.7 °F 75% 30.11 in 10.0 mi East 10.4 mph - N/A   Clear
3:15 AM 33.6 °F 26.2 °F 25.3 °F 72% 30.10 in 10.0 mi East 9.2 mph - N/A   Clear
3:35 AM 33.8 °F 25.3 °F 25.3 °F 71% 30.09 in 10.0 mi East 11.5 mph - N/A   Clear
3:55 AM 34.0 °F 24.2 °F 25.3 °F 71% 30.07 in 10.0 mi East 15.0 mph - N/A   Clear
4:15 AM 34.2 °F 25.2 °F 25.5 °F 71% 30.07 in 10.0 mi East 12.7 mph - N/A   Clear
4:35 AM 34.9 °F 27.1 °F 25.7 °F 69% 30.07 in 10.0 mi East 10.4 mph - N/A   Clear
4:55 AM 35.8 °F 28.8 °F 25.7 °F 67% 30.07 in 10.0 mi ESE 9.2 mph - N/A   Clear
5:15 AM 36.5 °F 27.4 °F 25.7 °F 65% 30.07 in 10.0 mi ESE 15.0 mph - N/A   Scattered Clouds
5:35 AM 36.0 °F 28.0 °F 26.1 °F 67% 30.08 in 10.0 mi ESE 11.5 mph - N/A   Scattered Clouds
5:55 AM 35.6 °F 27.5 °F 26.2 °F 69% 30.07 in 10.0 mi East 11.5 mph - N/A   Clear
6:15 AM 35.6 °F 28.6 °F 26.1 °F 68% 30.07 in 10.0 mi ESE 9.2 mph - N/A   Clear
6:35 AM 35.6 °F 28.0 °F 26.4 °F 69% 30.07 in 10.0 mi East 10.4 mph - N/A   Clear
6:55 AM 37.4 °F 29.3 °F 26.6 °F 65% 30.07 in 10.0 mi ESE 12.7 mph - N/A   Clear
7:15 AM 37.0 °F 28.9 °F 27.3 °F 68% 30.06 in 10.0 mi ESE 12.7 mph - N/A   Clear
7:35 AM 38.3 °F 30.5 °F 27.3 °F 65% 30.05 in 10.0 mi ESE 12.7 mph - N/A   Clear
7:55 AM 40.5 °F 32.8 °F 27.5 °F 60% 30.05 in 10.0 mi SE 13.8 mph 19.6 mph N/A   Clear
8:15 AM 42.1 °F 34.9 °F 27.9 °F 57% 30.05 in 10.0 mi SE 13.8 mph - N/A   Clear
8:35 AM 43.7 °F 37.3 °F 28.9 °F 56% 30.04 in 10.0 mi SE 12.7 mph - N/A   Clear
8:55 AM 46.0 °F 39.6 °F 29.7 °F 53% 30.03 in 10.0 mi SE 15.0 mph - N/A   Clear
9:15 AM 49.1 °F - 29.5 °F 47% 30.02 in 10.0 mi SSE 17.3 mph 24.2 mph N/A   Clear
9:35 AM 50.5 °F - 29.7 °F 45% 30.01 in 10.0 mi SE 19.6 mph 25.3 mph N/A   Clear
9:55 AM 51.4 °F - 29.8 °F 44% 30.00 in 10.0 mi SSE 17.3 mph 26.5 mph N/A   Clear
10:15 AM 54.7 °F - 30.4 °F 40% 29.98 in 10.0 mi SSE 19.6 mph 25.3 mph N/A   Clear
10:35 AM 57.2 °F - 30.6 °F 36% 29.97 in 10.0 mi SSE 19.6 mph 26.5 mph N/A   Clear
10:55 AM 58.3 °F - 31.1 °F 36% 29.97 in 10.0 mi SSE 19.6 mph 27.6 mph N/A   Clear
11:15 AM 60.1 °F - 32.0 °F 35% 29.95 in 10.0 mi SSE 17.3 mph 24.2 mph N/A   Clear
11:35 AM 61.5 °F - 31.8 °F 33% 29.93 in 10.0 mi SSE 23.0 mph 31.1 mph N/A   Clear
11:55 AM 61.0 °F - 32.2 °F 34% 29.92 in 10.0 mi SSE 17.3 mph 28.8 mph N/A   Scattered Clouds
12:15 PM 63.5 °F - 33.6 °F 33% 29.90 in 10.0 mi SSE 23.0 mph 32.2 mph N/A   Scattered Clouds
12:35 PM 65.5 °F - 34.9 °F 32% 29.89 in 10.0 mi South 23.0 mph 28.8 mph N/A   Scattered Clouds
12:55 PM 64.2 °F - 34.0 °F 32% 29.88 in 10.0 mi South 25.3 mph 35.7 mph N/A   Scattered Clouds
1:15 PM 64.4 °F - 34.5 °F 33% 29.86 in 10.0 mi SSE 21.9 mph 34.5 mph N/A   Scattered Clouds
1:35 PM 66.0 °F - 35.2 °F 32% 29.84 in 10.0 mi SSE 20.7 mph 31.1 mph N/A   Clear
1:55 PM 68.9 °F - 35.4 °F 29% 29.82 in 10.0 mi South 29.9 mph 35.7 mph N/A   Clear
2:15 PM 68.0 °F - 35.2 °F 30% 29.78 in 10.0 mi South 31.1 mph 36.8 mph N/A   Clear
2:35 PM 69.8 °F - 35.1 °F 28% 29.77 in 10.0 mi South 25.3 mph 42.6 mph N/A   Clear
2:55 PM 69.8 °F - 35.1 °F 28% 29.75 in 10.0 mi South 29.9 mph 43.7 mph N/A   Clear
3:15 PM 69.1 °F - 35.6 °F 29% 29.74 in 10.0 mi South 29.9 mph 39.1 mph N/A   Clear
3:35 PM 71.2 °F - 36.0 °F 27% 29.72 in 10.0 mi South 34.5 mph 46.0 mph N/A   Clear
3:55 PM 69.8 °F - 34.7 °F 27% 29.73 in 10.0 mi South 27.6 mph 38.0 mph N/A   Clear
4:15 PM 68.9 °F - 35.8 °F 30% 29.72 in 10.0 mi South 29.9 mph 41.4 mph N/A   Clear
4:35 PM 69.3 °F - 36.7 °F 30% 29.72 in 10.0 mi South 31.1 mph 40.3 mph N/A   Clear
4:55 PM 69.3 °F - 36.5 °F 30% 29.71 in 10.0 mi South 28.8 mph 36.8 mph N/A   Mostly Cloudy
5:15 PM 68.9 °F - 36.5 °F 30% 29.72 in 10.0 mi South 26.5 mph 38.0 mph N/A   Mostly Cloudy
5:35 PM 68.7 °F - 36.1 °F 30% 29.72 in 10.0 mi South 26.5 mph 34.5 mph N/A   Mostly Cloudy
5:55 PM 68.0 °F - 36.0 °F 31% 29.72 in 10.0 mi South 20.7 mph 32.2 mph N/A   Mostly Cloudy
6:15 PM 67.5 °F - 35.8 °F 31% 29.69 in 10.0 mi South 19.6 mph 34.5 mph N/A   Overcast
6:35 PM 66.6 °F - 36.7 °F 33% 29.70 in 10.0 mi South 23.0 mph 28.8 mph N/A   Overcast
6:55 PM 66.2 °F - 36.9 °F 34% 29.70 in 10.0 mi South 23.0 mph 28.8 mph N/A   Mostly Cloudy
7:15 PM 65.1 °F - 37.6 °F 36% 29.70 in 10.0 mi South 24.2 mph 29.9 mph N/A   Mostly Cloudy
7:35 PM 64.6 °F - 37.9 °F 37% 29.71 in 10.0 mi South 18.4 mph 28.8 mph N/A   Overcast
7:55 PM 64.4 °F - 37.8 °F 37% 29.71 in 10.0 mi South 18.4 mph 24.2 mph N/A   Overcast
8:15 PM 63.7 °F - 37.8 °F 38% 29.70 in 10.0 mi South 21.9 mph 27.6 mph N/A   Mostly Cloudy
8:35 PM 63.5 °F - 38.3 °F 39% 29.70 in 10.0 mi South 20.7 mph 29.9 mph N/A   Overcast
8:55 PM 61.0 °F - 41.2 °F 48% 29.69 in 10.0 mi South 20.7 mph 28.8 mph N/A   Overcast
9:15 PM 61.2 °F - 40.5 °F 47% 29.69 in 10.0 mi South 19.6 mph 28.8 mph N/A Rain Light Rain
9:35 PM 61.9 °F - 39.6 °F 44% 29.69 in 10.0 mi South 23.0 mph 27.6 mph N/A   Overcast
9:55 PM 62.2 °F - 38.5 °F 41% 29.68 in 10.0 mi South 24.2 mph 31.1 mph N/A   Overcast
10:15 PM 62.6 °F - 37.6 °F 40% 29.68 in 10.0 mi South 24.2 mph 32.2 mph N/A   Overcast
10:35 PM 62.4 °F - 37.4 °F 40% 29.67 in 10.0 mi SSW 25.3 mph 34.5 mph N/A   Scattered Clouds
10:55 PM 62.2 °F - 37.0 °F 39% 29.67 in 10.0 mi SSW 24.2 mph 32.2 mph N/A   Mostly Cloudy
11:15 PM 57.9 °F - 42.6 °F 57% 29.70 in 10.0 mi SSW 27.6 mph 39.1 mph N/A Rain Rain
11:35 PM 57.7 °F - 42.8 °F 57% 29.69 in 10.0 mi SSW 27.6 mph 35.7 mph N/A   Overcast
11:55 PM 54.5 °F - 47.1 °F 76% 29.70 in 7.0 mi SSW 21.9 mph 35.7 mph 0.01 in Rain , Thunderstorm Light Thunderstorms and Rain